Content
SEND FEEDBACK

Daily
Averages
Monthly
Summary
United States of America

JEANERETTE, LOUISIANA


Home > North America > United States > Louisiana
Elevation: 14 feet     Latitude: 29 54N     Longitude: 091 40W

WEATHER
 
SELECT A DAY
Number of Records: 201,131;   Date Range: 1/1/95 - 11/26/14
 
SHARE

PRINT THIS DATA

[ ← Previous Day ]
WEATHER ALMANAC - FEBRUARY 13, 2013
[ Next Day → ]
[ °C ]   °F
Weather ElementAverageHighLow
Temperature53.6 °F60.1 °F (3:53 pm)46.9 °F (11:53 pm)
Dewpoint43.6 °F52 °F (2:53 am)39 °F (11:53 pm)
Humidity69.3 %83 % (2:53 am)51 % (3:53 pm)
Barometer30.03 in30.09 in (9:53 pm)29.94 in (2:53 am)
Wind Speed9.7 mph19.6 mph (8:48 am)
Wind Gust25.3 mph (8:48 am)
Weather ElementAverage
Visibility10 mi
Wind DirectionWSW (264.3 °)

Weather ElementTotal
Precipitation---
Heating Degree Days11.5 (Base 65)
Growing Degree Days3.5 (Base 50)
Averaged from 28 records on February 13, 2013
WEATHER CONDITIONS BREAKOUT
WIND DIRECTION BREAKOUT
WEATHER BY HOUR - FEBRUARY 13, 2013
[ °C ]   °F
Local TimeTemperatureDewpointHumidityBarometerVisibilityWind DirectionWind SpeedGust SpeedPrecipitationEventsConditions
1:53 AM57.0 °F51.1 °F81 %29.96 in10.0 miWest (280°)5.8 mphClear
2:53 AM57.0 °F52.0 °F83 %29.94 in10.0 miNW (310°)5.8 mphScattered Clouds
3:53 AM57.0 °F50.0 °F77 %29.94 in10.0 miNW (310°)11.5 mphPartly Cloudy
4:53 AM55.9 °F48.9 °F77 %29.95 in10.0 miNW (310°)12.7 mphClear
5:53 AM55.0 °F48.0 °F77 %29.95 in10.0 miNW (320°)10.4 mph21.9 mphPartly Cloudy
6:53 AM54.0 °F46.9 °F77 %30.02 in10.0 miWNW (290°)13.8 mph0.00 inMostly Cloudy
7:53 AM53.1 °F45.0 °F74 %30.04 in10.0 miNW (310°)13.8 mph23.0 mph0.00 inRainLight Rain
8:48 AM51.8 °F44.6 °F76 %30.05 in10.0 miNW (320°)19.6 mph25.3 mph0.00 inRainLight Rain
8:53 AM52.0 °F44.1 °F74 %30.04 in10.0 miNW (320°)19.6 mph0.00 inOvercast
9:09 AM51.8 °F44.6 °F76 %30.04 in10.0 miNNW (340°)13.8 mphOvercast
9:53 AM51.1 °F41.0 °F68 %30.04 in10.0 miNNW (340°)11.5 mph0.00 inOvercast
10:53 AM51.1 °F42.1 °F71 %30.06 in10.0 miNNW (330°)9.2 mph0.00 inRainLight Rain
11:53 AM53.1 °F42.1 °F66 %30.05 in10.0 miNNW (340°)10.4 mph0.00 inClear
12:30 PM53.6 °F41.0 °F62 %30.06 in10.0 miNNW (340°)3.5 mphMostly Cloudy
12:53 PM53.1 °F41.0 °F64 %30.03 in10.0 miNorth (350°)8.1 mphScattered Clouds
1:29 PM55.4 °F42.8 °F63 %30.01 in10.0 miNorth (360°)9.2 mphMostly Cloudy
1:51 PM55.4 °F42.8 °F63 %30.02 in10.0 miNNW (340°)9.2 mphScattered Clouds
1:53 PM55.9 °F42.1 °F60 %30.01 in10.0 miNorth (350°)9.2 mphPartly Cloudy
2:53 PM59.0 °F42.1 °F53 %30.01 in10.0 miNNW (340°)6.9 mphPartly Cloudy
3:53 PM60.1 °F42.1 °F51 %30.01 in10.0 miNNW (340°)10.4 mphPartly Cloudy
4:53 PM59.0 °F42.1 °F53 %30.01 in10.0 miNorth (350°)8.1 mphPartly Cloudy
5:53 PM55.0 °F42.1 °F62 %30.03 in10.0 miNorth (10°)5.8 mphScattered Clouds
6:53 PM52.0 °F42.1 °F69 %30.04 in10.0 miNorth (360°)6.9 mphMostly Cloudy
7:53 PM50.0 °F41.0 °F71 %30.06 in10.0 miNorth (10°)8.1 mphClear
8:53 PM48.0 °F39.9 °F74 %30.08 in10.0 miNorth (10°)6.9 mphClear
9:53 PM48.9 °F39.9 °F71 %30.09 in10.0 miNNE (30°)9.2 mphClear
10:53 PM48.0 °F39.9 °F74 %30.09 in10.0 miNE (40°)6.9 mphClear
11:53 PM46.9 °F39.0 °F74 %30.08 in10.0 miNE (50°)5.8 mphClear
Hourly data recorded from KARA, located miles away from Jeanerette, Louisiana







STORIES FROM OUR PARTNERS